Regional Weather Roundup
Issued by NWS

Home | Current Version | Previous Version | Text Only | Print | Product List | Glossary On
Versions: 1 2 3 4 5 6 7 8 9 10 11 12 13 14 15 16 17 18 19 20 21 22 23 24 25 26 27 28 29 30 31 32 33 34 35 36 37 38 39 40 41 42 43 44 45 46 47 48 49 50
000
ASUS46 KSEW 272110
RWRWA

WASHINGTON REGIONAL WEATHER ROUNDUP
NATIONAL WEATHER SERVICE SEATTLE WA
200 PM PDT WED AUG 27 2014

NOTE:"FAIR" INDICATES FEW OR NO CLOUDS BELOW 12,000 FEET WITH NO
SIGNIFICANT WEATHER AND/OR OBSTRUCTIONS TO VISIBILITY.

WAZ505-507>509-272200-
SEATTLE, TACOMA, EVERETT, AND VICINITY

CITY           SKY/WX    TMP DP  RH WIND       PRES   REMARKS
EVERETT        SUNNY     76  59  55 W5        30.05F
BOEING FIELD   MOSUNNY   82  58  43 W3        30.02F
RENTON         SUNNY     82  62  50 NW6       30.01F
SEATAC AIRPORT MOSUNNY   81  55  40 S6        30.04F
JBLM-MCCHORD   SUNNY     82  58  43 E8        30.03F
PUYALLUP       NOT AVBL
JBLM-FT LEWIS  SUNNY     83  56  40 W10       30.03F
TACOMA NARROWS MOSUNNY   78  57  48 W6        30.04F
$$

WAZ001-503-506-510-514-515-272200-
NORTH INTERIOR

CITY           SKY/WX    TMP DP  RH WIND       PRES   REMARKS
BELLINGHAM     SUNNY     74  58  57 S9        30.02F
FRIDAY HARBOR  SUNNY     69  56  62 E6        30.05S
EASTSOUND      SUNNY     72  57  60 SW7       30.01F
PORT ANGELES   SUNNY     69  56  62 NW7       30.06S
NAS WHIDBEY    MOSUNNY   66  55  67 W7        30.05F
BURLINGTON     SUNNY     77  61  57 S7        30.04F
$$

WAZ020-022-039-040-504-511-512-272200-
SOUTHWEST INTERIOR

CITY           SKY/WX    TMP DP  RH WIND       PRES   REMARKS
SHELTON        SUNNY     78  58  49 W12       30.02F
OLYMPIA        SUNNY     82  58  43 VRB5      30.03F
CHEHALIS       FAIR      84  61  45 VRB6      30.03F
KELSO          SUNNY     79  61  53 N5        30.07F
VANCOUVER      SUNNY     85  56  37 NW7       30.01F
SCAPPOOSE, OR  SUNNY     86  60  41 VRB5      30.01F
PORTLAND, OR   MOSUNNY   85  58  39 W7        30.01F
$$

WAZ021-516-517-272200-
WASHINGTON COAST

CITY           SKY/WX    TMP DP  RH WIND       PRES   REMARKS
FORKS          SUNNY     70  59  68 NW7       30.08S
HOQUIAM        CLOUDY    63  58  83 SW14      30.09S
ASTORIA, OR    MOSUNNY   68  58  70 W10       30.09F
$$

WAZ019-023-024-040-518-519-272200-
CASCADE MOUNTAINS AND COLUMBIA GORGE

CITY           SKY/WX    TMP DP  RH WIND       PRES   REMARKS
STAMPEDE PASS  NOT AVBL
TROUTDALE, OR  SUNNY     87  58  37 SW7       30.00F
THE DALLES, OR SUNNY     96  52  22 NW17G24   29.91F HX  93
$$

WAZ026-027-041>044-520-521-272200-
EAST SLOPES

CITY           SKY/WX    TMP DP  RH WIND       PRES   REMARKS
OMAK           SUNNY     90  51  26 VRB3      29.93F
WENATCHEE      SUNNY     91  52  26 E6        29.93F
ELLENSBURG     SUNNY     93  54  26 VRB5      29.97F HX  91
YAKIMA         MOSUNNY   91  55  29 E7        29.94F
$$

WAZ028-034-035-272200-
COLUMBIA BASIN

CITY           SKY/WX    TMP DP  RH WIND       PRES   REMARKS
EPHRATA        SUNNY     90  53  28 S9        29.94F
MOSES LAKE     MOSUNNY   91  53  27 S9        29.95F
PASCO          SUNNY     95  51  22 SE6       29.92F HX  92
HERMISTON, OR  SUNNY     94  50  22 W9        29.93F HX  91
$$

WAZ036>038-272200-
NORTHEAST WASHINGTON

CITY           SKY/WX    TMP DP  RH WIND       PRES   REMARKS
SPOKANE GEIGER MOSUNNY   86  44  23 SW12      30.02F
SPOKANE FELTS  SUNNY     89  42  19 SW8       30.00F
FAIRCHILD AFB  SUNNY     88  45  22 VRB7G16   30.03F
COEURDALENE,ID SUNNY     86  45  23 SE6       30.01F
DEER PARK      SUNNY     88  44  21 S9        30.01F
$$

WAZ029>033-272200-
SOUTHEAST WASHINGTON

CITY           SKY/WX    TMP DP  RH WIND       PRES   REMARKS
PULLMAN        SUNNY     85  38  18 VRB5      30.07F
LEWISTON, ID   SUNNY     90  42  18 CALM      29.99F
WALLA WALLA    SUNNY     92  47  21 MISG      29.99F
PENDLETON, OR  SUNNY     91  47  21 MISG      29.98F
$$


USA.gov is the U.S. government's official web portal to all federal, state and local government web resources and services.